TimeEST,TemperatureF,Dew PointF,Humidity,Sea Level PressureIn,VisibilityMPH,Wind Direction,Wind SpeedMPH,Gust SpeedMPH,PrecipitationIn,Events,Conditions,WindDirDegrees,DateUTC
8:35 AM,33.8,21.2,60,30.31,10.0,NW,6.9,-,N/A,,Clear,320,2012-12-06 13:35:00
8:55 AM,33.8,21.2,60,30.31,10.0,NW,11.5,17.3,N/A,,Clear,320,2012-12-06 13:55:00
9:15 AM,33.8,21.2,60,30.31,10.0,WNW,9.2,16.1,N/A,,Clear,300,2012-12-06 14:15:00
9:35 AM,33.8,21.2,60,30.32,10.0,WNW,10.4,16.1,N/A,,Clear,300,2012-12-06 14:35:00
9:55 AM,35.6,21.2,56,30.32,10.0,WNW,10.4,17.3,N/A,,Clear,300,2012-12-06 14:55:00
10:15 AM,35.6,21.2,56,30.32,10.0,NW,8.1,-,N/A,,Clear,320,2012-12-06 15:15:00
10:35 AM,35.6,21.2,56,30.32,10.0,NW,11.5,-,N/A,,Clear,310,2012-12-06 15:35:00
10:55 AM,35.6,21.2,56,30.31,10.0,NW,8.1,-,N/A,,Clear,310,2012-12-06 15:55:00
11:15 AM,37.4,21.2,52,30.30,10.0,NW,9.2,-,N/A,,Clear,310,2012-12-06 16:15:00
11:35 AM,37.4,21.2,52,30.30,10.0,North,4.6,-,N/A,,Clear,360,2012-12-06 16:35:00
11:55 AM,37.4,21.2,52,30.30,10.0,NW,6.9,-,N/A,,Clear,320,2012-12-06 16:55:00
12:15 PM,39.2,19.4,45,30.29,10.0,NNW,3.5,-,N/A,,Clear,330,2012-12-06 17:15:00
12:35 PM,39.2,19.4,45,30.28,10.0,Calm,Calm,-,N/A,,Clear,0,2012-12-06 17:35:00
12:55 PM,39.2,19.4,45,30.27,10.0,NNW,4.6,-,N/A,,Clear,340,2012-12-06 17:55:00
1:15 PM,39.2,19.4,45,30.27,10.0,North,6.9,-,N/A,,Clear,360,2012-12-06 18:15:00
1:35 PM,39.2,21.2,49,30.27,10.0,North,4.6,-,N/A,,Clear,360,2012-12-06 18:35:00
1:55 PM,39.2,21.2,49,30.27,10.0,North,5.8,-,N/A,,Clear,10,2012-12-06 18:55:00
2:15 PM,39.2,21.2,49,30.27,10.0,North,5.8,-,N/A,,Clear,360,2012-12-06 19:15:00
2:35 PM,39.2,21.2,49,30.28,10.0,NNW,3.5,-,N/A,,Clear,340,2012-12-06 19:35:00
2:55 PM,39.2,19.4,45,30.28,10.0,North,3.5,-,N/A,,Clear,10,2012-12-06 19:55:00
3:15 PM,39.2,19.4,45,30.29,10.0,Calm,Calm,-,N/A,,Clear,0,2012-12-06 20:15:00
3:35 PM,39.2,17.6,42,30.30,10.0,Calm,Calm,-,N/A,,Clear,0,2012-12-06 20:35:00
3:55 PM,37.4,19.4,48,30.30,10.0,Calm,Calm,-,N/A,,Clear,0,2012-12-06 20:55:00
4:15 PM,33.8,21.2,60,30.31,10.0,Calm,Calm,-,N/A,,Clear,0,2012-12-06 21:15:00
4:35 PM,32.0,21.2,64,30.31,10.0,Calm,Calm,-,N/A,,Clear,0,2012-12-06 21:35:00
4:55 PM,32.0,21.2,64,30.31,10.0,Calm,Calm,-,N/A,,Clear,0,2012-12-06 21:55:00
5:15 PM,30.2,21.2,69,30.31,10.0,Calm,Calm,-,N/A,,Clear,0,2012-12-06 22:15:00
5:35 PM,30.2,21.2,69,30.31,10.0,Calm,Calm,-,N/A,,Clear,0,2012-12-06 22:35:00
5:55 PM,30.2,21.2,69,30.32,5.0,Calm,Calm,-,N/A,,Haze,0,2012-12-06 22:55:00
6:15 PM,30.2,21.2,69,30.32,3.0,Calm,Calm,-,N/A,,Haze,0,2012-12-06 23:15:00
6:35 PM,30.2,21.2,69,30.32,6.0,West,3.5,-,N/A,,Haze,260,2012-12-06 23:35:00
6:55 PM,28.4,21.2,74,30.32,10.0,WSW,4.6,-,N/A,,Clear,250,2012-12-06 23:55:00
7:15 PM,28.4,21.2,74,30.32,10.0,Calm,Calm,-,N/A,,Clear,0,2012-12-07 00:15:00
7:35 PM,28.4,21.2,74,30.31,10.0,West,3.5,-,N/A,,Clear,270,2012-12-07 00:35:00
7:55 PM,28.4,21.2,74,30.31,10.0,Calm,Calm,-,N/A,,Clear,0,2012-12-07 00:55:00
8:15 PM,26.6,21.2,80,30.32,10.0,West,3.5,-,N/A,,Clear,260,2012-12-07 01:15:00
8:35 PM,26.6,21.2,80,30.32,10.0,WSW,3.5,-,N/A,,Clear,250,2012-12-07 01:35:00
8:55 PM,26.6,21.2,80,30.32,10.0,WSW,3.5,-,N/A,,Clear,250,2012-12-07 01:55:00
9:35 PM,26.6,21.2,80,30.33,10.0,WSW,3.5,-,N/A,,Clear,250,2012-12-07 02:35:00
9:55 PM,26.6,21.2,80,30.33,10.0,Calm,Calm,-,N/A,,Clear,0,2012-12-07 02:55:00
10:15 PM,26.6,21.2,80,30.33,10.0,West,3.5,-,N/A,,Clear,260,2012-12-07 03:15:00
10:35 PM,26.6,21.2,80,30.33,10.0,WSW,3.5,-,N/A,,Clear,250,2012-12-07 03:35:00
10:55 PM,24.8,21.2,86,30.32,10.0,WSW,3.5,-,N/A,,Clear,250,2012-12-07 03:55:00
11:15 PM,24.8,21.2,86,30.33,10.0,WSW,3.5,-,N/A,,Clear,250,2012-12-07 04:15:00
11:35 PM,24.8,21.2,86,30.32,10.0,WSW,3.5,-,N/A,,Clear,240,2012-12-07 04:35:00
11:55 PM,24.8,21.2,86,30.31,10.0,SW,3.5,-,N/A,,Clear,230,2012-12-07 04:55:00